Miscellaneous Local Product
Issued by NWS Hastings, NE

Home | Current Version | Previous Version | Graphics & Text | Print | Product List | Glossary On
Versions: 1 2 3 4 5 6 7 8 9 10 11 12 13 14 15 16 17 18 19 20 21 22 23 24 25 26 27 28 29 30 31 32 33 34 35 36 37 38 39 40 41 42 43 44 45 46 47 48 49 50
000
AXUS43 KGID 230202
MISGRI

GID CWA HOURLY WEATHER ROUNDUP
NATIONAL WEATHER SERVICE HASTINGS NE
900 PM CDT THU JUN 22 2017

NOTE: "FAIR" INDICATES FEW OR NO CLOUDS BELOW 12,000 FEET WITH NO
SIGNIFICANT WEATHER AND/OR OBSTRUCTIONS TO VISIBILITY.

...SOUTH CENTRAL NEBRASKA...

CITY           SKY/WX    TMP DP  RH WIND       PRES   REMARKS
GRAND ISLAND   MOCLDY    75  63  66 N17G26    29.79R
HASTINGS       CLEAR     79  60  52 N14G25    29.77R
KEARNEY        CLEAR     75  57  53 N22G29    29.80R
ORD            CLOUDY    70  56  61 N16       29.83R
YORK           CLEAR     79  63  57 N24G32    29.73R
AURORA         CLEAR     76  61  60 N16G22    29.77R
LEXINGTON      CLEAR     75  59  57 N13       29.83S
HOLDREGE       CLEAR     76  59  56 N13G21    29.80R
HEBRON         CLEAR     83  67  58 N16G24    29.68R

...NEBRASKA PANHANDLE...

CITY           SKY/WX    TMP DP  RH WIND       PRES   REMARKS
CHADRON        CLEAR     71  40  32 NE10      29.95R
ALLIANCE       CLEAR     70  48  45 NE9       29.96R
SCOTTSBLUFF    CLOUDY    74  47  38 E14       29.95R
SIDNEY         CLOUDY    73  53  49 E16       29.97S

...WESTERN AND NORTH CENTRAL NEBRASKA...

CITY           SKY/WX    TMP DP  RH WIND       PRES   REMARKS
VALENTINE      CLEAR     75  44  33 N8        29.92R
AINSWORTH      PTCLDY    69  49  49 NE5       29.91R
ONEILL         CLOUDY    70  55  58 N13       29.87R
BROKEN BOW     CLEAR     71  54  54 N16       29.87R
IMPERIAL       CLOUDY    74  55  51 NE13G23   29.91R
NORTH PLATTE   PTCLDY    74  52  46 NE8       29.91R
MCCOOK         PTCLDY    78  59  51 N14       29.84R

...EASTERN NEBRASKA...

CITY           SKY/WX    TMP DP  RH WIND       PRES   REMARKS
NORFOLK        PTCLDY    73  62  68 N13       29.77R
SO SIOUX CITY  CLOUDY    72  63  73 N13G23    29.75R
TEKAMAH        PTCLDY    77  64  64 N20G35    29.70R
COLUMBUS       PTCLDY    76  65  68 N16       29.75R
ALBION         CLOUDY    73  61  65 N9        29.81R
OMAHA EPPLEY   CLOUDY    83  68  60 N9        29.66R
OFFUTT AFB     CLOUDY    82  71  70 NW3       29.65R
MILLARD        CLOUDY    86  69  56 NE6       29.66R HX  90
LINCOLN        MOCLDY    82  68  62 N17       29.67R
NEBRASKA CITY  MOCLDY    82  70  65 S5        29.66R
BEATRICE       CLOUDY    86  70  58 CALM      29.64R HX  90
FALLS CITY     CLEAR     81  71  71 SE7       29.64R

...NORTHERN KANSAS...

CITY           SKY/WX    TMP DP  RH WIND       PRES   REMARKS
GOODLAND       CLOUDY    78  58  49 NE16      29.85F
HILL CITY      PTCLDY    82  65  56 N17G26    29.76R
NORTON         CLEAR     79  55  44 N9G18     29.81R
PHILLIPSBURG   CLEAR     82  63  51 N10G22    29.74R
SMITH CENTER   MOCLDY    81  63  54 N18G31    29.71R
HAYS           TSTM      89  66  46 NE18G25   29.67R HX  91
RUSSELL        PTCLDY    90  64  42 N18       29.63R HX  91
CONCORDIA      PTCLDY    86  66  51 VRB3      29.63R
SALINA         CLEAR     90  64  42 S12       29.62R HX  91
TOPEKA         PTCLDY    84  73  69 SW6       29.67R HX  90



USA.gov is the U.S. government's official web portal to all federal, state and local government web resources and services.